User: anonymous   Login
Location: Unspecified
(0.0000°N, 0.0000°E)
Time: 08:44:52
(UTC+00:00)
Language:

FALCON 9 R/B - Orbit

View from above orbital plane
View from above orbital plane
View from above satellite
View from above satellite

Ground track
Ground track

The orbit data is extracted from the following two-line orbital elements,

1 37253U 10066K   19051.76287370 +.00001527 +00000-0 +16706-3 0  9997
2 37253 034.4926 150.9023 4250955 098.5610 310.4758 06.93761472202950
Epoch (UTC): 20 February 2019 18:18:32
Eccentricity: 0.4250955
inclination: 34.4926°
perigee height: 298 km
apogee height: 10171 km
right ascension of ascending node: 150.9023°
argument of perigee: 98.5610°
revolutions per day: 6.93761472
mean anomaly at epoch: 310.4758°
orbit number at epoch: 20295

The dashed part of the orbit path shows where the satellite is in the earth's shadow,  

DLR